Station SBIO1 - South Bass Island, OH Image indicating link to RSS feed of recent meteorological observations for station SBIO1


Conditions at SBIO1 as of
(2:00 pm EDT)
1800 GMT on 05/30/2024:
     

Click on the graph icon in the table below to see a time series plot of the last five days of that observation.

5-day plot - Wind Direction Wind Direction (WDIR):WNW ( 290 deg true )
5-day plot - Wind Speed Wind Speed (WSPD): 6 kts
5-day plot - Wind Gust Wind Gust (GST): 7 kts
5-day plot - Atmospheric Pressure Atmospheric Pressure (PRES):30.21 in
5-day plot - Pressure Tendency Pressure Tendency (PTDY):-0.01 in ( Falling )
5-day plot - Air Temperature Air Temperature (ATMP): 61.0 °F
5-day plot - Wind Speed at 10 Meters Wind Speed at 10 meters (WSPD10M): 6 kts
5-day plot - Wind Speed at 20 Meters Wind Speed at 20 meters (WSPD20M): 6 kts
5-day plot -  Wind Speed, Wind Gust and Atmospheric Pressure Combined plot of Wind Speed, Gust, and Air Pressure
Continuous Winds
TIME
(EDT)
5-day plot - Wind Direction WDIR 5-day plot - Wind Speed WSPD
2:00 pmWNW ( 282 deg ) 6 kts
1:50 pmWNW ( 284 deg ) 6 kts
1:40 pmWNW ( 282 deg ) 6 kts
1:30 pmWNW ( 286 deg ) 7 kts
1:20 pmWNW ( 284 deg ) 6 kts
1:10 pmWNW ( 302 deg ) 6 kts
 
Peak gust during the measurement hour
TIME
(EDT)
5-day plot - Gust Direction GDR 5-day plot - Gust Speed GST
1:14 pmWNW ( 290 deg ) 9 kts
Previous observations
TIME
(EDT)
5-day plot - Wind Direction
WDIR
 
5-day plot - Wind Speed
WSPD
kts
5-day plot - Wind Gust
GST
kts
5-day plot - Wave Height
WVHT
ft
5-day plot - Dominant Wave Period
DPD
sec
5-day plot - Average Wave Period
APD
sec
5-day plot - Mean Wave Direction
MWD
 
5-day plot - Atmospheric Pressure
PRES
in
5-day plot - Pressure Tendency
PTDY
in
5-day plot - Air Temperature
ATMP
°F
5-day plot - Water Temperature
WTMP
°F
5-day plot - Dew Point
DEWP
°F
5-day plot - Salinity
SAL
psu
5-day plot - Visibility
VIS
nmi
5-day plot - Tide (above MLLW)
TIDE
ft
2024-05-30 01:00 pmWNW 6 7----30.21-0.01 59.5-----
2024-05-30 12:00 pm NW 8 10----30.22+0.00 59.2-----
2024-05-30 11:00 amNNW 10 12----30.22+0.01 58.8-----
2024-05-30 10:00 amNNW 7 9----30.22- 59.0-----
2024-05-30 09:00 amNNE 3 6----30.22- 59.4-----
2024-05-30 08:00 amNNE 4 6----30.20- 58.3-----
2024-05-30 07:00 amNNE 5 8----30.20+0.02 56.7-----
2024-05-30 06:00 am N 5 6----30.19+0.02 54.9-----
2024-05-30 05:00 amNNE 7 12----30.17+0.00 54.3-----
2024-05-30 04:00 amNNE 6 8----30.18+0.01 54.9-----
2024-05-30 03:00 am N 6 8----30.17+0.03 55.9-----
2024-05-30 02:00 amNNW 6 9----30.17+0.04 57.7-----
2024-05-30 01:00 am N 4 6----30.16+0.04 56.5-----
2024-05-30 12:00 amNNE 5 6----30.14+0.03 56.5-----
2024-05-29 11:00 pm NE 5 6----30.12+0.02 55.9-----
2024-05-29 10:00 pm NE 5 7----30.12+0.02 57.4-----
2024-05-29 09:00 pm NE 5 7----30.11+0.03 58.8-----
2024-05-29 08:00 pmNNE 5 9----30.11+0.04 61.2-----
2024-05-29 07:00 pm NE 7 11----30.09+0.04 62.4-----
2024-05-29 06:00 pmNNE 7 9----30.08+0.03 64.2-----
2024-05-29 05:00 pm N 12 16----30.06+0.02 63.7-----
2024-05-29 04:00 pm N 9 13----30.06+0.03 61.7-----
2024-05-29 03:00 pmNNW 20 26----30.05+0.01 62.6-----
2024-05-29 02:00 pmNNW 12 15----30.04+0.01 62.4-----